Time,TemperatureF,DewpointF,PressureIn,WindDirection,WindDirectionDegrees,WindSpeedMPH,WindSpeedGustMPH,Humidity,HourlyPrecipIn,Conditions,Clouds,dailyrainin,SoftwareType,DateUTC
2013-07-11 00:02:00,64.5,63.6,29.76,SE,144,0.0,0.0,97,0.00,,,0.00,WeatherCatV1.15B25,2013-07-11 04:02:00,
2013-07-11 00:05:00,64.5,63.6,29.75,SE,144,0.0,0.0,97,0.00,,,0.00,WeatherCatV1.15B25,2013-07-11 04:05:00,
2013-07-11 00:06:00,64.5,63.6,29.75,SE,144,0.0,0.0,97,0.00,,,0.00,WeatherCatV1.15B25,2013-07-11 04:06:00,
2013-07-11 00:08:00,64.6,63.7,29.75,SE,144,0.0,0.0,97,0.00,,,0.00,WeatherCatV1.15B25,2013-07-11 04:08:00,
2013-07-11 00:13:00,64.5,63.6,29.75,SE,144,0.0,0.0,97,0.00,,,0.00,WeatherCatV1.15B25,2013-07-11 04:13:00,
2013-07-11 00:15:00,64.5,63.6,29.75,SE,144,0.0,0.0,97,0.00,,,0.00,WeatherCatV1.15B25,2013-07-11 04:15:00,
2013-07-11 00:20:00,64.5,63.6,29.74,SE,144,0.0,0.0,97,0.00,,,0.00,WeatherCatV1.15B25,2013-07-11 04:20:00,
2013-07-11 00:25:00,64.4,63.5,29.74,SE,144,0.0,0.0,97,0.00,,,0.00,WeatherCatV1.15B25,2013-07-11 04:25:00,
2013-07-11 00:30:00,64.4,63.5,29.74,SE,144,0.0,0.0,97,0.00,,,0.00,WeatherCatV1.15B25,2013-07-11 04:30:00,
2013-07-11 00:35:00,64.4,63.5,29.74,SE,144,0.0,0.0,97,0.00,,,0.00,WeatherCatV1.15B25,2013-07-11 04:35:00,
2013-07-11 00:40:00,64.3,63.4,29.74,SE,144,0.0,0.0,97,0.00,,,0.00,WeatherCatV1.15B25,2013-07-11 04:40:00,
2013-07-11 00:45:00,64.2,63.3,29.74,SE,144,0.0,0.0,97,0.00,,,0.00,WeatherCatV1.15B25,2013-07-11 04:45:00,
2013-07-11 00:50:00,64.1,63.2,29.74,SE,144,0.0,0.0,97,0.00,,,0.00,WeatherCatV1.15B25,2013-07-11 04:50:00,
2013-07-11 00:55:00,64.0,63.1,29.74,SE,144,0.0,0.0,97,0.00,,,0.00,WeatherCatV1.15B25,2013-07-11 04:55:00,
2013-07-11 01:00:00,63.9,63.0,29.74,SE,144,0.0,0.0,97,0.00,,,0.00,WeatherCatV1.15B25,2013-07-11 05:00:00,
2013-07-11 01:05:00,63.8,62.9,29.74,SE,144,0.0,0.0,97,0.00,,,0.00,WeatherCatV1.15B25,2013-07-11 05:05:00,
2013-07-11 01:10:00,63.8,62.9,29.74,SE,144,0.0,1.0,97,0.00,,,0.00,WeatherCatV1.15B25,2013-07-11 05:10:00,
2013-07-11 01:15:00,63.8,62.9,29.74,SE,144,0.0,0.0,97,0.00,,,0.00,WeatherCatV1.15B25,2013-07-11 05:15:00,
2013-07-11 01:20:00,63.7,62.8,29.74,SE,144,0.0,0.0,97,0.00,,,0.00,WeatherCatV1.15B25,2013-07-11 05:20:00,
2013-07-11 01:25:00,63.6,62.7,29.74,SE,144,0.0,0.0,97,0.00,,,0.00,WeatherCatV1.15B25,2013-07-11 05:25:00,
2013-07-11 01:30:00,63.6,62.7,29.74,SE,144,0.0,0.0,97,0.00,,,0.00,WeatherCatV1.15B25,2013-07-11 05:30:00,
2013-07-11 01:35:00,63.4,62.5,29.74,SE,144,0.0,0.0,97,0.00,,,0.00,WeatherCatV1.15B25,2013-07-11 05:35:00,
2013-07-11 01:40:00,63.3,62.4,29.74,SE,144,0.0,0.0,97,0.00,,,0.00,WeatherCatV1.15B25,2013-07-11 05:40:00,
2013-07-11 01:45:00,63.2,62.3,29.73,SE,144,0.0,0.0,97,0.00,,,0.00,WeatherCatV1.15B25,2013-07-11 05:45:00,
2013-07-11 01:50:00,63.1,62.2,29.73,SE,144,0.0,0.0,97,0.00,,,0.00,WeatherCatV1.15B25,2013-07-11 05:50:00,
2013-07-11 01:55:00,63.0,62.1,29.73,SE,144,0.0,0.0,97,0.00,,,0.00,WeatherCatV1.15B25,2013-07-11 05:55:00,
2013-07-11 02:00:00,62.9,62.0,29.73,SE,144,0.0,0.0,97,0.00,,,0.00,WeatherCatV1.15B25,2013-07-11 06:00:00,
2013-07-11 02:05:00,62.7,61.8,29.73,SE,144,0.0,0.0,97,0.00,,,0.00,WeatherCatV1.15B25,2013-07-11 06:05:00,
2013-07-11 02:10:00,62.7,61.8,29.73,SE,144,0.0,0.0,97,0.00,,,0.00,WeatherCatV1.15B25,2013-07-11 06:10:00,
2013-07-11 02:15:00,62.7,61.8,29.73,SE,144,0.0,0.0,97,0.00,,,0.00,WeatherCatV1.15B25,2013-07-11 06:15:00,
2013-07-11 02:20:00,62.7,61.8,29.73,SE,144,0.0,0.0,97,0.00,,,0.00,WeatherCatV1.15B25,2013-07-11 06:20:00,
2013-07-11 02:25:00,62.7,61.8,29.73,SE,144,0.0,0.0,97,0.00,,,0.00,WeatherCatV1.15B25,2013-07-11 06:25:00,
2013-07-11 02:30:00,62.6,61.7,29.73,SE,144,0.0,0.0,97,0.00,,,0.00,WeatherCatV1.15B25,2013-07-11 06:30:00,
2013-07-11 02:35:00,62.7,62.1,29.73,SE,144,0.0,0.0,98,0.00,,,0.00,WeatherCatV1.15B25,2013-07-11 06:35:00,
2013-07-11 02:40:00,62.7,62.1,29.73,SE,144,0.0,0.0,98,0.00,,,0.00,WeatherCatV1.15B25,2013-07-11 06:40:00,
2013-07-11 02:45:00,62.8,62.2,29.73,SE,144,0.0,0.0,98,0.00,,,0.00,WeatherCatV1.15B25,2013-07-11 06:45:00,
2013-07-11 02:50:00,62.8,62.2,29.73,SE,144,0.0,0.0,98,0.00,,,0.00,WeatherCatV1.15B25,2013-07-11 06:50:00,
2013-07-11 02:55:00,62.7,62.1,29.73,SE,144,0.0,0.0,98,0.00,,,0.00,WeatherCatV1.15B25,2013-07-11 06:55:00,
2013-07-11 03:00:00,62.7,62.1,29.73,SE,144,0.0,0.0,98,0.00,,,0.00,WeatherCatV1.15B25,2013-07-11 07:00:00,
2013-07-11 03:05:00,62.8,62.2,29.73,SE,144,0.0,0.0,98,0.00,,,0.00,WeatherCatV1.15B25,2013-07-11 07:05:00,
2013-07-11 03:10:00,62.8,62.2,29.73,SE,144,0.0,0.0,98,0.00,,,0.00,WeatherCatV1.15B25,2013-07-11 07:10:00,
2013-07-11 03:15:00,62.8,62.2,29.74,SE,144,0.0,0.0,98,0.00,,,0.00,WeatherCatV1.15B25,2013-07-11 07:15:00,
2013-07-11 03:20:00,62.8,62.2,29.74,SE,144,0.0,0.0,98,0.00,,,0.00,WeatherCatV1.15B25,2013-07-11 07:20:00,
2013-07-11 03:25:00,62.8,62.2,29.74,SE,144,0.0,0.0,98,0.00,,,0.00,WeatherCatV1.15B25,2013-07-11 07:25:00,
2013-07-11 03:30:00,62.7,62.1,29.74,SE,144,0.0,0.0,98,0.00,,,0.00,WeatherCatV1.15B25,2013-07-11 07:30:00,
2013-07-11 03:35:00,62.7,62.1,29.74,SE,144,0.0,0.0,98,0.00,,,0.00,WeatherCatV1.15B25,2013-07-11 07:35:00,
2013-07-11 03:40:00,62.7,62.1,29.74,SE,144,0.0,0.0,98,0.00,,,0.00,WeatherCatV1.15B25,2013-07-11 07:40:00,
2013-07-11 03:45:00,62.6,61.7,29.75,SE,144,0.0,0.0,97,0.00,,,0.00,WeatherCatV1.15B25,2013-07-11 07:45:00,
2013-07-11 03:50:00,62.6,61.7,29.75,SE,144,0.0,0.0,97,0.00,,,0.00,WeatherCatV1.15B25,2013-07-11 07:50:00,
2013-07-11 03:55:00,62.5,61.6,29.75,SE,144,0.0,0.0,97,0.00,,,0.00,WeatherCatV1.15B25,2013-07-11 07:55:00,
2013-07-11 04:00:00,62.5,61.6,29.75,SE,144,0.0,0.0,97,0.00,,,0.00,WeatherCatV1.15B25,2013-07-11 08:00:00,
2013-07-11 04:06:00,62.6,61.7,29.75,SE,144,0.0,0.0,97,0.00,,,0.00,WeatherCatV1.15B25,2013-07-11 08:06:00,
2013-07-11 04:11:00,62.6,61.7,29.75,SE,144,0.0,0.0,97,0.00,,,0.00,WeatherCatV1.15B25,2013-07-11 08:11:00,
2013-07-11 04:16:00,62.6,61.7,29.75,SE,144,0.0,0.0,97,0.00,,,0.00,WeatherCatV1.15B25,2013-07-11 08:16:00,
2013-07-11 04:21:00,62.6,61.7,29.75,SE,144,0.0,0.0,97,0.00,,,0.00,WeatherCatV1.15B25,2013-07-11 08:21:00,
2013-07-11 04:26:00,62.7,61.8,29.75,SE,144,0.0,0.0,97,0.00,,,0.00,WeatherCatV1.15B25,2013-07-11 08:26:00,
2013-07-11 04:31:00,62.7,61.8,29.75,SE,144,0.0,0.0,97,0.00,,,0.00,WeatherCatV1.15B25,2013-07-11 08:31:00,
2013-07-11 04:36:00,62.6,61.7,29.75,SE,144,0.0,0.0,97,0.00,,,0.00,WeatherCatV1.15B25,2013-07-11 08:36:00,
2013-07-11 04:41:00,62.6,61.7,29.75,SE,144,0.0,0.0,97,0.00,,,0.00,WeatherCatV1.15B25,2013-07-11 08:41:00,
2013-07-11 04:46:00,62.6,61.7,29.75,SE,144,0.0,0.0,97,0.00,,,0.00,WeatherCatV1.15B25,2013-07-11 08:46:00,
2013-07-11 04:51:00,62.5,61.6,29.75,SE,144,0.0,0.0,97,0.00,,,0.00,WeatherCatV1.15B25,2013-07-11 08:51:00,
2013-07-11 04:56:00,62.5,61.6,29.76,SE,144,0.0,0.0,97,0.00,,,0.00,WeatherCatV1.15B25,2013-07-11 08:56:00,
2013-07-11 05:01:00,62.5,61.6,29.76,SE,144,0.0,0.0,97,0.00,,,0.00,WeatherCatV1.15B25,2013-07-11 09:01:00,
2013-07-11 05:06:00,62.4,61.5,29.76,SE,144,0.0,0.0,97,0.00,,,0.00,WeatherCatV1.15B25,2013-07-11 09:06:00,
2013-07-11 05:11:00,62.4,61.5,29.77,SE,144,0.0,0.0,97,0.00,,,0.00,WeatherCatV1.15B25,2013-07-11 09:11:00,
2013-07-11 05:16:00,62.4,61.5,29.77,SE,144,0.0,2.0,97,0.00,,,0.00,WeatherCatV1.15B25,2013-07-11 09:16:00,
2013-07-11 05:21:00,62.5,61.6,29.77,SE,144,0.0,0.0,97,0.00,,,0.00,WeatherCatV1.15B25,2013-07-11 09:21:00,
2013-07-11 05:26:00,62.5,61.9,29.76,SE,144,0.0,0.0,98,0.00,,,0.00,WeatherCatV1.15B25,2013-07-11 09:26:00,
2013-07-11 05:31:00,62.6,61.7,29.76,SE,144,0.0,0.0,97,0.00,,,0.00,WeatherCatV1.15B25,2013-07-11 09:31:00,
2013-07-11 05:36:00,62.6,61.7,29.76,SE,144,0.0,0.0,97,0.00,,,0.00,WeatherCatV1.15B25,2013-07-11 09:36:00,
2013-07-11 05:41:00,62.7,62.1,29.77,SE,144,0.0,0.0,98,0.00,,,0.00,WeatherCatV1.15B25,2013-07-11 09:41:00,
2013-07-11 05:46:00,62.9,62.3,29.77,SE,144,0.0,0.0,98,0.00,,,0.00,WeatherCatV1.15B25,2013-07-11 09:46:00,
2013-07-11 05:51:00,62.9,62.3,29.77,SE,144,0.0,0.0,98,0.00,,,0.00,WeatherCatV1.15B25,2013-07-11 09:51:00,
2013-07-11 05:56:00,62.9,62.3,29.77,SE,144,0.0,0.0,98,0.00,,,0.00,WeatherCatV1.15B25,2013-07-11 09:56:00,
2013-07-11 06:01:00,62.9,62.3,29.77,SE,146,0.0,0.0,98,0.00,,,0.00,WeatherCatV1.15B25,2013-07-11 10:01:00,
2013-07-11 06:06:00,62.9,62.3,29.77,SSE,148,0.0,0.0,98,0.00,,,0.00,WeatherCatV1.15B25,2013-07-11 10:06:00,
2013-07-11 06:11:00,62.9,62.3,29.76,SE,142,0.0,0.0,98,0.00,,,0.00,WeatherCatV1.15B25,2013-07-11 10:11:00,
2013-07-11 06:16:00,63.0,62.4,29.76,SE,142,0.0,0.0,98,0.00,,,0.00,WeatherCatV1.15B25,2013-07-11 10:16:00,
2013-07-11 06:21:00,63.0,62.4,29.76,SE,141,0.0,0.0,98,0.00,,,0.00,WeatherCatV1.15B25,2013-07-11 10:21:00,
2013-07-11 06:26:00,63.1,62.5,29.77,SE,142,0.0,0.0,98,0.00,,,0.00,WeatherCatV1.15B25,2013-07-11 10:26:00,
2013-07-11 06:31:00,63.1,62.5,29.77,SE,141,0.0,0.0,98,0.00,,,0.00,WeatherCatV1.15B25,2013-07-11 10:31:00,
2013-07-11 06:36:00,63.1,62.5,29.77,SE,142,0.0,0.0,98,0.00,,,0.00,WeatherCatV1.15B25,2013-07-11 10:36:00,
2013-07-11 06:41:00,63.2,62.6,29.77,SE,142,0.0,0.0,98,0.00,,,0.00,WeatherCatV1.15B25,2013-07-11 10:41:00,
2013-07-11 06:46:00,63.3,62.7,29.77,SE,142,0.0,0.0,98,0.00,,,0.00,WeatherCatV1.15B25,2013-07-11 10:46:00,
2013-07-11 06:51:00,63.4,62.8,29.78,SSE,148,0.0,0.0,98,0.00,,,0.00,WeatherCatV1.15B25,2013-07-11 10:51:00,
2013-07-11 06:56:00,63.4,62.8,29.78,SE,128,0.0,0.0,98,0.00,,,0.00,WeatherCatV1.15B25,2013-07-11 10:56:00,
2013-07-11 07:01:00,63.5,62.9,29.78,ESE,117,0.0,0.0,98,0.00,,,0.00,WeatherCatV1.15B25,2013-07-11 11:01:00,
2013-07-11 07:06:00,63.7,63.1,29.78,ESE,117,0.0,0.0,98,0.00,,,0.00,WeatherCatV1.15B25,2013-07-11 11:06:00,
2013-07-11 07:11:00,63.9,63.3,29.79,ESE,117,0.0,0.0,98,0.00,,,0.00,WeatherCatV1.15B25,2013-07-11 11:11:00,
2013-07-11 07:16:00,63.9,63.3,29.79,ESE,117,0.0,0.0,98,0.00,,,0.00,WeatherCatV1.15B25,2013-07-11 11:16:00,
2013-07-11 07:21:00,64.0,63.4,29.79,SE,124,0.0,0.0,98,0.00,,,0.00,WeatherCatV1.15B25,2013-07-11 11:21:00,
2013-07-11 07:26:00,64.1,63.5,29.78,SE,126,0.0,0.0,98,0.00,,,0.00,WeatherCatV1.15B25,2013-07-11 11:26:00,
2013-07-11 07:31:00,64.2,63.6,29.78,SE,136,0.0,0.0,98,0.00,,,0.00,WeatherCatV1.15B25,2013-07-11 11:31:00,
2013-07-11 07:36:00,64.3,63.7,29.79,SE,144,0.0,0.0,98,0.00,,,0.00,WeatherCatV1.15B25,2013-07-11 11:36:00,
2013-07-11 07:41:00,64.5,63.9,29.79,SSE,157,0.0,0.0,98,0.00,,,0.00,WeatherCatV1.15B25,2013-07-11 11:41:00,
2013-07-11 07:46:00,64.7,64.1,29.78,SSE,157,0.0,0.0,98,0.00,,,0.00,WeatherCatV1.15B25,2013-07-11 11:46:00,
2013-07-11 07:51:00,65.0,64.4,29.78,SSE,153,0.0,0.0,98,0.00,,,0.00,WeatherCatV1.15B25,2013-07-11 11:51:00,
2013-07-11 07:56:00,65.4,64.8,29.78,SE,146,0.0,0.0,98,0.00,,,0.00,WeatherCatV1.15B25,2013-07-11 11:56:00,
2013-07-11 08:01:00,65.7,65.1,29.77,SE,144,0.0,0.0,98,0.00,,,0.00,WeatherCatV1.15B25,2013-07-11 12:01:00,
2013-07-11 08:07:00,65.8,65.2,29.78,SE,144,0.0,0.0,98,0.00,,,0.00,WeatherCatV1.15B25,2013-07-11 12:07:00,
2013-07-11 08:12:00,65.9,65.3,29.78,SSE,159,0.0,0.0,98,0.00,,,0.00,WeatherCatV1.15B25,2013-07-11 12:12:00,
2013-07-11 08:17:00,66.1,65.5,29.78,SSE,167,0.0,0.0,98,0.00,,,0.00,WeatherCatV1.15B25,2013-07-11 12:17:00,
2013-07-11 08:22:00,66.2,65.6,29.77,South,180,0.0,0.0,98,0.00,,,0.00,WeatherCatV1.15B25,2013-07-11 12:22:00,
2013-07-11 08:27:00,66.3,65.7,29.77,South,190,0.0,0.0,98,0.00,,,0.00,WeatherCatV1.15B25,2013-07-11 12:27:00,
2013-07-11 08:32:00,66.3,65.7,29.78,SSW,198,0.0,0.0,98,0.00,,,0.00,WeatherCatV1.15B25,2013-07-11 12:32:00,
2013-07-11 08:37:00,66.1,65.5,29.78,SSW,200,0.0,0.0,98,0.00,,,0.00,WeatherCatV1.15B25,2013-07-11 12:37:00,
2013-07-11 08:42:00,65.9,65.3,29.78,SSE,147,0.0,1.0,98,0.00,,,0.00,WeatherCatV1.15B25,2013-07-11 12:42:00,
2013-07-11 08:47:00,65.8,65.2,29.78,SSE,148,1.0,1.0,98,0.00,,,0.00,WeatherCatV1.15B25,2013-07-11 12:47:00,
2013-07-11 08:52:00,65.7,65.1,29.78,SSE,155,0.0,1.0,98,2.16,,,0.02,WeatherCatV1.15B25,2013-07-11 12:52:00,
2013-07-11 08:58:00,65.6,65.0,29.79,SSE,152,0.0,0.0,98,0.16,,,0.05,WeatherCatV1.15B25,2013-07-11 12:58:00,
2013-07-11 09:03:00,65.8,65.2,29.79,East,82,0.0,0.0,98,0.74,,,0.16,WeatherCatV1.15B25,2013-07-11 13:03:00,
2013-07-11 09:08:00,65.9,65.3,29.79,East,82,0.0,0.0,98,0.13,,,0.17,WeatherCatV1.15B25,2013-07-11 13:08:00,
2013-07-11 09:13:00,65.9,65.3,29.79,East,82,0.0,0.0,98,0.17,,,0.19,WeatherCatV1.15B25,2013-07-11 13:13:00,
2013-07-11 09:18:00,65.9,65.3,29.80,East,82,0.0,0.0,98,0.22,,,0.21,WeatherCatV1.15B25,2013-07-11 13:18:00,
2013-07-11 09:23:00,66.0,65.4,29.80,East,81,0.0,0.0,98,0.12,,,0.22,WeatherCatV1.15B25,2013-07-11 13:23:00,
2013-07-11 09:28:00,66.2,65.6,29.80,East,81,0.0,0.0,98,0.10,,,0.22,WeatherCatV1.15B25,2013-07-11 13:28:00,
2013-07-11 09:33:00,66.4,65.8,29.80,East,88,0.0,0.0,98,0.05,,,0.22,WeatherCatV1.15B25,2013-07-11 13:33:00,
2013-07-11 09:38:00,66.5,65.9,29.80,East,98,0.0,0.0,98,0.04,,,0.22,WeatherCatV1.15B25,2013-07-11 13:38:00,
2013-07-11 09:43:00,66.5,65.9,29.80,East,101,0.0,0.0,98,0.00,,,0.22,WeatherCatV1.15B25,2013-07-11 13:43:00,
2013-07-11 09:48:00,66.7,66.1,29.80,East,101,0.0,0.0,98,0.00,,,0.22,WeatherCatV1.15B25,2013-07-11 13:48:00,
2013-07-11 09:54:00,66.8,66.2,29.80,ESE,105,0.0,0.0,98,0.00,,,0.23,WeatherCatV1.15B25,2013-07-11 13:54:00,
2013-07-11 09:59:00,67.0,66.4,29.80,ESE,105,0.0,0.0,98,0.00,,,0.23,WeatherCatV1.15B25,2013-07-11 13:59:00,
2013-07-11 10:04:00,67.2,66.6,29.80,ESE,105,0.0,0.0,98,0.00,,,0.23,WeatherCatV1.15B25,2013-07-11 14:04:00,
2013-07-11 10:09:00,67.3,66.7,29.80,ESE,105,0.0,0.0,98,0.00,,,0.23,WeatherCatV1.15B25,2013-07-11 14:09:00,
2013-07-11 10:14:00,67.4,66.8,29.80,East,100,0.0,0.0,98,0.00,,,0.23,WeatherCatV1.15B25,2013-07-11 14:14:00,
2013-07-11 10:19:00,67.5,66.9,29.80,East,97,0.0,0.0,98,0.00,,,0.23,WeatherCatV1.15B25,2013-07-11 14:19:00,
2013-07-11 10:25:00,67.4,66.8,29.80,ESE,107,0.0,0.0,98,0.00,,,0.23,WeatherCatV1.15B25,2013-07-11 14:25:00,
2013-07-11 10:30:00,67.3,66.7,29.80,East,87,0.0,0.0,98,0.00,,,0.23,WeatherCatV1.15B25,2013-07-11 14:30:00,
2013-07-11 10:35:00,67.3,66.7,29.80,East,98,0.0,0.0,98,0.00,,,0.23,WeatherCatV1.15B25,2013-07-11 14:35:00,
2013-07-11 10:40:00,67.3,66.7,29.80,East,101,0.0,0.0,98,0.00,,,0.23,WeatherCatV1.15B25,2013-07-11 14:40:00,
2013-07-11 10:46:00,67.4,66.8,29.80,ESE,103,0.0,0.0,98,0.00,,,0.23,WeatherCatV1.15B25,2013-07-11 14:46:00,
2013-07-11 10:51:00,67.6,67.0,29.80,ESE,103,0.0,0.0,98,0.00,,,0.23,WeatherCatV1.15B25,2013-07-11 14:51:00,
2013-07-11 10:56:00,67.7,67.1,29.80,East,80,0.0,0.0,98,0.00,,,0.23,WeatherCatV1.15B25,2013-07-11 14:56:00,
2013-07-11 11:01:00,67.7,67.1,29.80,East,82,0.0,0.0,98,0.00,,,0.23,WeatherCatV1.15B25,2013-07-11 15:01:00,
2013-07-11 11:06:00,67.9,67.3,29.80,ENE,76,0.0,0.0,98,0.00,,,0.23,WeatherCatV1.15B25,2013-07-11 15:06:00,
2013-07-11 11:11:00,68.0,67.4,29.80,ENE,71,0.0,0.0,98,0.00,,,0.23,WeatherCatV1.15B25,2013-07-11 15:11:00,
2013-07-11 11:16:00,68.2,67.6,29.80,East,83,0.0,0.0,98,0.00,,,0.23,WeatherCatV1.15B25,2013-07-11 15:16:00,
2013-07-11 11:22:00,69.2,68.6,29.80,East,99,0.0,0.0,98,0.00,,,0.23,WeatherCatV1.15B25,2013-07-11 15:22:00,
2013-07-11 11:27:00,70.0,69.4,29.80,ESE,105,0.0,0.0,98,0.00,,,0.23,WeatherCatV1.15B25,2013-07-11 15:27:00,
2013-07-11 11:32:00,70.0,69.4,29.80,ESE,105,0.0,0.0,98,0.00,,,0.23,WeatherCatV1.15B25,2013-07-11 15:32:00,
2013-07-11 11:38:00,70.3,69.7,29.80,ESE,105,0.0,0.0,98,0.00,,,0.23,WeatherCatV1.15B25,2013-07-11 15:38:00,
2013-07-11 11:43:00,70.4,69.8,29.80,ESE,105,0.0,1.0,98,0.00,,,0.23,WeatherCatV1.15B25,2013-07-11 15:43:00,
2013-07-11 11:48:00,71.0,70.4,29.80,ESE,116,0.0,0.0,98,0.00,,,0.23,WeatherCatV1.15B25,2013-07-11 15:48:00,
2013-07-11 11:53:00,71.0,70.4,29.80,SE,144,0.0,2.0,98,0.00,,,0.23,WeatherCatV1.15B25,2013-07-11 15:53:00,
2013-07-11 11:59:00,71.8,71.2,29.80,SSE,155,0.0,0.0,98,0.00,,,0.23,WeatherCatV1.15B25,2013-07-11 15:59:00,
2013-07-11 12:04:00,73.0,72.4,29.79,SSE,153,0.0,1.0,98,0.00,,,0.23,WeatherCatV1.15B25,2013-07-11 16:04:00,
2013-07-11 12:09:00,74.9,74.3,29.79,SSE,155,0.0,0.0,98,0.00,,,0.23,WeatherCatV1.15B25,2013-07-11 16:09:00,
2013-07-11 12:14:00,75.5,74.9,29.79,SSE,153,0.0,0.0,98,0.00,,,0.23,WeatherCatV1.15B25,2013-07-11 16:14:00,
2013-07-11 12:19:00,76.0,75.4,29.79,SSE,156,0.0,0.0,98,0.00,,,0.23,WeatherCatV1.15B25,2013-07-11 16:19:00,
2013-07-11 12:25:00,76.1,75.2,29.79,ENE,57,0.0,2.0,97,0.00,,,0.23,WeatherCatV1.15B25,2013-07-11 16:25:00,
2013-07-11 12:30:00,75.8,74.9,29.78,ENE,62,0.0,0.0,97,0.00,,,0.23,WeatherCatV1.15B25,2013-07-11 16:30:00,
2013-07-11 12:35:00,76.2,74.7,29.78,ENE,61,0.0,0.0,95,0.00,,,0.23,WeatherCatV1.15B25,2013-07-11 16:35:00,
2013-07-11 12:40:00,75.9,73.4,29.78,ENE,64,0.0,0.0,92,0.00,,,0.23,WeatherCatV1.15B25,2013-07-11 16:40:00,
2013-07-11 12:45:00,75.8,73.0,29.78,ENE,67,0.0,0.0,91,0.00,,,0.23,WeatherCatV1.15B25,2013-07-11 16:45:00,
2013-07-11 12:50:00,76.8,74.3,29.78,ENE,67,0.0,0.0,92,0.00,,,0.23,WeatherCatV1.15B25,2013-07-11 16:50:00,
2013-07-11 12:55:00,77.7,73.8,29.78,SSW,207,0.0,0.0,88,0.00,,,0.23,WeatherCatV1.15B25,2013-07-11 16:55:00,
2013-07-11 13:00:00,78.8,75.6,29.78,ESE,105,0.0,0.0,90,0.00,,,0.23,WeatherCatV1.15B25,2013-07-11 17:00:00,
2013-07-11 13:06:00,79.6,72.5,29.78,SSW,205,0.0,2.0,79,0.00,,,0.23,WeatherCatV1.15B25,2013-07-11 17:06:00,
2013-07-11 13:11:00,80.5,74.8,29.78,SSW,195,0.0,1.0,83,0.00,,,0.23,WeatherCatV1.15B25,2013-07-11 17:11:00,
2013-07-11 13:18:00,81.2,73.3,29.78,SSW,192,0.0,0.0,77,0.00,,,0.23,WeatherCatV1.15B25,2013-07-11 17:18:00,
2013-07-11 13:23:00,80.6,70.3,29.78,NW,304,0.0,3.0,71,0.00,,,0.23,WeatherCatV1.15B25,2013-07-11 17:23:00,
2013-07-11 13:28:00,80.3,73.9,29.78,WNW,298,0.0,0.0,81,0.00,,,0.23,WeatherCatV1.15B25,2013-07-11 17:28:00,
2013-07-11 13:33:00,79.5,70.5,29.79,SSE,150,0.0,4.0,74,0.00,,,0.23,WeatherCatV1.15B25,2013-07-11 17:33:00,
2013-07-11 13:38:00,79.8,74.5,29.78,ESE,116,0.0,5.0,84,0.00,,,0.23,WeatherCatV1.15B25,2013-07-11 17:38:00,
2013-07-11 13:43:00,79.5,67.6,29.79,ESE,102,0.0,4.0,67,0.00,,,0.23,WeatherCatV1.15B25,2013-07-11 17:43:00,
2013-07-11 13:49:00,79.9,71.6,29.79,ESE,103,0.0,0.0,76,0.00,,,0.23,WeatherCatV1.15B25,2013-07-11 17:49:00,
2013-07-11 13:54:00,79.5,67.1,29.79,SE,130,1.0,2.0,66,0.00,,,0.23,WeatherCatV1.15B25,2013-07-11 17:54:00,
2013-07-11 14:00:00,79.2,67.7,29.79,WSW,256,0.0,0.0,68,0.00,,,0.23,WeatherCatV1.15B25,2013-07-11 18:00:00,
2013-07-11 14:05:00,79.7,69.4,29.78,East,90,0.0,3.0,71,0.00,,,0.23,WeatherCatV1.15B25,2013-07-11 18:05:00,
2013-07-11 14:10:00,80.4,71.7,29.78,East,96,0.0,3.0,75,0.00,,,0.23,WeatherCatV1.15B25,2013-07-11 18:10:00,
2013-07-11 14:16:00,80.3,67.0,29.78,SE,125,3.0,3.0,64,0.00,,,0.23,WeatherCatV1.15B25,2013-07-11 18:16:00,
2013-07-11 14:21:00,80.6,69.5,29.78,NW,317,2.0,5.0,69,0.00,,,0.23,WeatherCatV1.15B25,2013-07-11 18:21:00,
2013-07-11 14:26:00,80.0,64.8,29.79,ESE,115,0.0,1.0,60,0.00,,,0.23,WeatherCatV1.15B25,2013-07-11 18:26:00,
2013-07-11 14:31:00,79.4,68.7,29.79,ESE,114,0.0,4.0,70,0.00,,,0.23,WeatherCatV1.15B25,2013-07-11 18:31:00,
2013-07-11 14:36:00,78.7,69.7,29.79,ESE,115,0.0,1.0,74,0.00,,,0.23,WeatherCatV1.15B25,2013-07-11 18:36:00,
2013-07-11 14:41:00,78.1,65.4,29.79,SW,215,0.0,3.0,65,0.00,,,0.23,WeatherCatV1.15B25,2013-07-11 18:41:00,
2013-07-11 14:46:00,79.1,71.6,29.79,SE,137,0.0,1.0,78,0.00,,,0.23,WeatherCatV1.15B25,2013-07-11 18:46:00,
2013-07-11 14:51:00,79.8,73.1,29.79,WSW,258,0.0,2.0,80,0.00,,,0.23,WeatherCatV1.15B25,2013-07-11 18:51:00,
2013-07-11 14:56:00,80.9,70.6,29.79,WSW,257,0.0,1.0,71,0.00,,,0.23,WeatherCatV1.15B25,2013-07-11 18:56:00,
2013-07-11 15:01:00,81.6,70.4,29.78,WSW,253,0.0,2.0,69,0.00,,,0.23,WeatherCatV1.15B25,2013-07-11 19:01:00,
2013-07-11 15:06:00,82.1,70.5,29.78,SSE,159,0.0,0.0,68,0.00,,,0.23,WeatherCatV1.15B25,2013-07-11 19:06:00,
2013-07-11 15:11:00,82.8,71.6,29.78,East,86,2.0,3.0,69,0.00,,,0.23,WeatherCatV1.15B25,2013-07-11 19:11:00,
2013-07-11 15:16:00,82.9,68.5,29.78,SE,136,0.0,3.0,62,0.00,,,0.23,WeatherCatV1.15B25,2013-07-11 19:16:00,
2013-07-11 15:21:00,82.7,71.9,29.78,East,94,0.0,1.0,70,0.00,,,0.23,WeatherCatV1.15B25,2013-07-11 19:21:00,
2013-07-11 15:26:00,82.6,69.6,29.78,ESE,103,0.0,2.0,65,0.00,,,0.23,WeatherCatV1.15B25,2013-07-11 19:26:00,
2013-07-11 15:31:00,82.8,72.8,29.78,ESE,109,0.0,1.0,72,0.00,,,0.23,WeatherCatV1.15B25,2013-07-11 19:31:00,
2013-07-11 15:36:00,83.3,72.5,29.78,ESE,111,2.0,2.0,70,0.00,,,0.23,WeatherCatV1.15B25,2013-07-11 19:36:00,
2013-07-11 15:42:00,83.1,65.7,29.79,NW,309,0.0,3.0,56,0.00,,,0.23,WeatherCatV1.15B25,2013-07-11 19:42:00,
2013-07-11 15:47:00,83.0,68.6,29.79,NW,309,0.0,0.0,62,0.00,,,0.23,WeatherCatV1.15B25,2013-07-11 19:47:00,
2013-07-11 15:53:00,83.4,67.0,29.79,NW,309,0.0,2.0,58,0.00,,,0.23,WeatherCatV1.15B25,2013-07-11 19:53:00,
2013-07-11 15:58:00,83.9,70.4,29.78,NW,312,0.0,1.0,64,0.00,,,0.23,WeatherCatV1.15B25,2013-07-11 19:58:00,
2013-07-11 16:03:00,83.9,69.9,29.79,NW,311,0.0,0.0,63,0.00,,,0.23,WeatherCatV1.15B25,2013-07-11 20:03:00,
2013-07-11 16:08:00,83.8,68.9,29.79,NW,312,0.0,0.0,61,0.00,,,0.23,WeatherCatV1.15B25,2013-07-11 20:08:00,
2013-07-11 16:13:00,83.6,69.6,29.79,NW,312,0.0,0.0,63,0.00,,,0.23,WeatherCatV1.15B25,2013-07-11 20:13:00,
2013-07-11 16:18:00,83.4,70.8,29.79,NW,311,0.0,0.0,66,0.00,,,0.23,WeatherCatV1.15B25,2013-07-11 20:18:00,
2013-07-11 16:23:00,83.7,69.3,29.79,NW,312,0.0,0.0,62,0.00,,,0.23,WeatherCatV1.15B25,2013-07-11 20:23:00,
2013-07-11 16:28:00,83.7,71.5,29.79,NW,312,0.0,1.0,67,0.00,,,0.23,WeatherCatV1.15B25,2013-07-11 20:28:00,
2013-07-11 16:33:00,83.5,66.6,29.79,NW,311,0.0,0.0,57,0.00,,,0.23,WeatherCatV1.15B25,2013-07-11 20:33:00,
2013-07-11 16:38:00,83.1,64.2,29.80,WSW,256,0.0,2.0,53,0.00,,,0.23,WeatherCatV1.15B25,2013-07-11 20:38:00,
2013-07-11 16:43:00,82.0,64.7,29.80,WSW,252,0.0,1.0,56,0.00,,,0.23,WeatherCatV1.15B25,2013-07-11 20:43:00,
2013-07-11 16:48:00,81.0,68.5,29.80,ENE,67,3.0,3.0,66,0.00,,,0.23,WeatherCatV1.15B25,2013-07-11 20:48:00,
2013-07-11 16:53:00,80.1,69.0,29.81,ENE,68,0.0,1.0,69,0.00,,,0.23,WeatherCatV1.15B25,2013-07-11 20:53:00,
2013-07-11 16:58:00,79.6,65.9,29.81,ENE,68,0.0,1.0,63,0.00,,,0.23,WeatherCatV1.15B25,2013-07-11 20:58:00,
2013-07-11 17:04:00,80.2,71.1,29.81,NE,55,0.0,0.0,74,0.00,,,0.23,WeatherCatV1.15B25,2013-07-11 21:04:00,
2013-07-11 17:09:00,80.0,65.8,29.81,NE,55,0.0,1.0,62,0.00,,,0.23,WeatherCatV1.15B25,2013-07-11 21:09:00,
2013-07-11 17:14:00,79.9,69.6,29.81,NE,55,0.0,1.0,71,0.00,,,0.23,WeatherCatV1.15B25,2013-07-11 21:14:00,
2013-07-11 17:19:00,79.0,66.6,29.81,NE,55,0.0,1.0,66,0.00,,,0.23,WeatherCatV1.15B25,2013-07-11 21:19:00,
2013-07-11 17:24:00,78.6,68.0,29.81,NE,55,0.0,1.0,70,0.00,,,0.23,WeatherCatV1.15B25,2013-07-11 21:24:00,
2013-07-11 17:29:00,78.4,66.1,29.82,East,84,0.0,5.0,66,0.00,,,0.23,WeatherCatV1.15B25,2013-07-11 21:29:00,
2013-07-11 17:34:00,78.7,67.2,29.82,East,84,0.0,0.0,68,0.00,,,0.23,WeatherCatV1.15B25,2013-07-11 21:34:00,
2013-07-11 17:39:00,78.6,69.2,29.82,East,84,0.0,1.0,73,0.00,,,0.23,WeatherCatV1.15B25,2013-07-11 21:39:00,
2013-07-11 17:44:00,78.7,69.7,29.82,East,84,0.0,0.0,74,0.00,,,0.23,WeatherCatV1.15B25,2013-07-11 21:44:00,
2013-07-11 17:50:00,79.2,69.8,29.82,East,84,0.0,0.0,73,0.00,,,0.23,WeatherCatV1.15B25,2013-07-11 21:50:00,
2013-07-11 17:55:00,79.6,71.0,29.82,East,84,2.0,2.0,75,0.00,,,0.23,WeatherCatV1.15B25,2013-07-11 21:55:00,
2013-07-11 18:00:00,80.1,70.2,29.82,East,84,0.0,0.0,72,0.00,,,0.23,WeatherCatV1.15B25,2013-07-11 22:00:00,
2013-07-11 18:06:00,80.9,67.1,29.82,East,84,0.0,1.0,63,0.00,,,0.23,WeatherCatV1.15B25,2013-07-11 22:06:00,
2013-07-11 18:11:00,81.3,65.6,29.82,East,84,0.0,1.0,59,0.00,,,0.23,WeatherCatV1.15B25,2013-07-11 22:11:00,
2013-07-11 18:17:00,80.9,68.0,29.82,East,84,0.0,1.0,65,0.00,,,0.23,WeatherCatV1.15B25,2013-07-11 22:17:00,
2013-07-11 18:22:00,80.7,64.5,29.82,SSE,163,0.0,4.0,58,0.00,,,0.23,WeatherCatV1.15B25,2013-07-11 22:22:00,
2013-07-11 18:27:00,80.9,69.3,29.83,SE,144,0.0,1.0,68,0.00,,,0.23,WeatherCatV1.15B25,2013-07-11 22:27:00,
2013-07-11 18:32:00,80.6,68.6,29.83,SE,144,0.0,2.0,67,0.00,,,0.23,WeatherCatV1.15B25,2013-07-11 22:32:00,
2013-07-11 18:37:00,79.8,67.4,29.83,South,182,0.0,1.0,66,0.00,,,0.23,WeatherCatV1.15B25,2013-07-11 22:37:00,
2013-07-11 18:43:00,78.5,67.9,29.84,ESE,105,0.0,4.0,70,0.00,,,0.23,WeatherCatV1.15B25,2013-07-11 22:43:00,
2013-07-11 18:48:00,77.5,66.9,29.84,ESE,105,0.0,1.0,70,0.00,,,0.23,WeatherCatV1.15B25,2013-07-11 22:48:00,
2013-07-11 18:53:00,76.4,67.1,29.84,ESE,105,0.0,1.0,73,0.00,,,0.23,WeatherCatV1.15B25,2013-07-11 22:53:00,
2013-07-11 18:58:00,75.4,66.5,29.85,ESE,105,0.0,0.0,74,0.00,,,0.23,WeatherCatV1.15B25,2013-07-11 22:58:00,
2013-07-11 19:03:00,74.5,66.4,29.85,ESE,105,0.0,1.0,76,0.00,,,0.23,WeatherCatV1.15B25,2013-07-11 23:03:00,
2013-07-11 19:08:00,74.0,66.7,29.86,ESE,105,0.0,0.0,78,0.00,,,0.23,WeatherCatV1.15B25,2013-07-11 23:08:00,
2013-07-11 19:13:00,73.6,65.6,29.86,ESE,105,0.0,1.0,76,0.00,,,0.23,WeatherCatV1.15B25,2013-07-11 23:13:00,
2013-07-11 19:18:00,73.0,63.4,29.86,ESE,105,0.0,1.0,72,0.00,,,0.23,WeatherCatV1.15B25,2013-07-11 23:18:00,
2013-07-11 19:23:00,72.9,65.6,29.87,ESE,105,0.0,0.0,78,0.00,,,0.23,WeatherCatV1.15B25,2013-07-11 23:23:00,
2013-07-11 19:28:00,72.4,65.1,29.86,ESE,105,0.0,0.0,78,0.00,,,0.23,WeatherCatV1.15B25,2013-07-11 23:28:00,
2013-07-11 19:34:00,71.8,65.3,29.87,ESE,105,0.0,0.0,80,0.00,,,0.23,WeatherCatV1.15B25,2013-07-11 23:34:00,
2013-07-11 19:39:00,71.3,64.4,29.87,ESE,105,0.0,0.0,79,0.00,,,0.23,WeatherCatV1.15B25,2013-07-11 23:39:00,
2013-07-11 19:44:00,70.9,64.8,29.88,ESE,105,0.0,0.0,81,0.00,,,0.23,WeatherCatV1.15B25,2013-07-11 23:44:00,
2013-07-11 19:50:00,70.4,64.3,29.88,ESE,105,0.0,0.0,81,0.00,,,0.23,WeatherCatV1.15B25,2013-07-11 23:50:00,
2013-07-11 19:55:00,69.8,63.3,29.89,ESE,105,0.0,0.0,80,0.00,,,0.23,WeatherCatV1.15B25,2013-07-11 23:55:00,
2013-07-11 20:00:00,69.4,63.3,29.89,ESE,105,0.0,0.0,81,0.00,,,0.23,WeatherCatV1.15B25,2013-07-12 00:00:00,
2013-07-11 20:05:00,69.1,63.7,29.89,ESE,105,0.0,0.0,83,0.00,,,0.23,WeatherCatV1.15B25,2013-07-12 00:05:00,
2013-07-11 20:10:00,68.8,63.1,29.90,ESE,105,0.0,0.0,82,0.00,,,0.23,WeatherCatV1.15B25,2013-07-12 00:10:00,
2013-07-11 20:15:00,68.5,63.1,29.90,ESE,105,0.0,0.0,83,0.00,,,0.23,WeatherCatV1.15B25,2013-07-12 00:15:00,
2013-07-11 20:20:00,68.2,63.5,29.90,ESE,105,0.0,0.0,85,0.00,,,0.23,WeatherCatV1.15B25,2013-07-12 00:20:00,
2013-07-11 20:25:00,67.8,63.1,29.90,ESE,105,0.0,0.0,85,0.00,,,0.23,WeatherCatV1.15B25,2013-07-12 00:25:00,
2013-07-11 20:31:00,67.2,61.9,29.91,ESE,105,0.0,0.0,83,0.00,,,0.23,WeatherCatV1.15B25,2013-07-12 00:31:00,
2013-07-11 20:36:00,66.8,62.1,29.91,ESE,105,0.0,0.0,85,0.00,,,0.23,WeatherCatV1.15B25,2013-07-12 00:36:00,
2013-07-11 20:41:00,66.4,61.7,29.91,ESE,105,0.0,0.0,85,0.00,,,0.23,WeatherCatV1.15B25,2013-07-12 00:41:00,
2013-07-11 20:46:00,66.0,61.7,29.91,ESE,105,0.0,0.0,86,0.00,,,0.23,WeatherCatV1.15B25,2013-07-12 00:46:00,
2013-07-11 20:51:00,65.5,61.5,29.91,ESE,105,0.0,0.0,87,0.00,,,0.23,WeatherCatV1.15B25,2013-07-12 00:51:00,
2013-07-11 20:56:00,65.2,61.2,29.92,ESE,105,0.0,0.0,87,0.00,,,0.23,WeatherCatV1.15B25,2013-07-12 00:56:00,
2013-07-11 21:01:00,64.8,60.8,29.92,ESE,105,0.0,0.0,87,0.00,,,0.23,WeatherCatV1.15B25,2013-07-12 01:01:00,
2013-07-11 21:08:00,64.3,60.7,29.92,ESE,105,0.0,0.0,88,0.00,,,0.23,WeatherCatV1.15B25,2013-07-12 01:08:00,
2013-07-11 21:13:00,63.9,60.6,29.93,ESE,105,0.0,0.0,89,0.00,,,0.23,WeatherCatV1.15B25,2013-07-12 01:13:00,
2013-07-11 21:18:00,63.8,60.8,29.93,ESE,105,0.0,0.0,90,0.00,,,0.23,WeatherCatV1.15B25,2013-07-12 01:18:00,
2013-07-11 21:23:00,63.6,60.6,29.93,ESE,105,0.0,0.0,90,0.00,,,0.23,WeatherCatV1.15B25,2013-07-12 01:23:00,
2013-07-11 21:28:00,63.3,60.3,29.93,ESE,105,0.0,0.0,90,0.00,,,0.23,WeatherCatV1.15B25,2013-07-12 01:28:00,
2013-07-11 21:33:00,63.2,60.5,29.93,ESE,105,0.0,0.0,91,0.00,,,0.23,WeatherCatV1.15B25,2013-07-12 01:33:00,
2013-07-11 21:39:00,62.9,60.2,29.93,ESE,105,0.0,0.0,91,0.00,,,0.23,WeatherCatV1.15B25,2013-07-12 01:39:00,
2013-07-11 21:44:00,62.6,59.9,29.94,ESE,105,0.0,0.0,91,0.00,,,0.23,WeatherCatV1.15B25,2013-07-12 01:44:00,
2013-07-11 21:49:00,62.4,59.7,29.94,ESE,105,0.0,0.0,91,0.00,,,0.23,WeatherCatV1.15B25,2013-07-12 01:49:00,
2013-07-11 21:56:00,62.0,59.3,29.94,ESE,105,0.0,0.0,91,0.00,,,0.23,WeatherCatV1.15B25,2013-07-12 01:56:00,
2013-07-11 22:01:00,61.8,59.1,29.94,ESE,105,0.0,0.0,91,0.00,,,0.23,WeatherCatV1.15B25,2013-07-12 02:01:00,
2013-07-11 22:06:00,61.6,59.2,29.94,ESE,105,0.0,0.0,92,0.00,,,0.23,WeatherCatV1.15B25,2013-07-12 02:06:00,
2013-07-11 22:11:00,61.4,59.1,29.95,ESE,105,0.0,0.0,92,0.00,,,0.23,WeatherCatV1.15B25,2013-07-12 02:11:00,
2013-07-11 22:17:00,61.2,58.9,29.95,ESE,105,0.0,0.0,92,0.00,,,0.23,WeatherCatV1.15B25,2013-07-12 02:17:00,
2013-07-11 22:22:00,61.3,59.3,29.95,ESE,105,0.0,0.0,93,0.00,,,0.23,WeatherCatV1.15B25,2013-07-12 02:22:00,
2013-07-11 22:29:00,61.0,58.7,29.96,ESE,105,0.0,0.0,92,0.00,,,0.23,WeatherCatV1.15B25,2013-07-12 02:29:00,
2013-07-11 22:34:00,60.7,58.7,29.96,ESE,105,0.0,0.0,93,0.00,,,0.23,WeatherCatV1.15B25,2013-07-12 02:34:00,
2013-07-11 22:39:00,60.5,58.5,29.96,ESE,105,0.0,0.0,93,0.00,,,0.23,WeatherCatV1.15B25,2013-07-12 02:39:00,
2013-07-11 22:44:00,60.2,58.2,29.96,ESE,105,0.0,0.0,93,0.00,,,0.23,WeatherCatV1.15B25,2013-07-12 02:44:00,
2013-07-11 22:49:00,60.0,58.0,29.96,ESE,105,0.0,0.0,93,0.00,,,0.23,WeatherCatV1.15B25,2013-07-12 02:49:00,
2013-07-11 22:55:00,59.9,57.9,29.96,ESE,105,0.0,0.0,93,0.00,,,0.23,WeatherCatV1.15B25,2013-07-12 02:55:00,
2013-07-11 23:00:00,59.8,57.8,29.96,ESE,105,0.0,0.0,93,0.00,,,0.23,WeatherCatV1.15B25,2013-07-12 03:00:00,
2013-07-11 23:05:00,59.6,57.6,29.96,ESE,105,0.0,0.0,93,0.00,,,0.23,WeatherCatV1.15B25,2013-07-12 03:05:00,
2013-07-11 23:10:00,59.4,57.4,29.97,ESE,105,0.0,0.0,93,0.00,,,0.23,WeatherCatV1.15B25,2013-07-12 03:10:00,
2013-07-11 23:15:00,59.2,57.2,29.97,ESE,105,0.0,0.0,93,0.00,,,0.23,WeatherCatV1.15B25,2013-07-12 03:15:00,
2013-07-11 23:20:00,59.0,57.0,29.97,ESE,105,0.0,0.0,93,0.00,,,0.23,WeatherCatV1.15B25,2013-07-12 03:20:00,
2013-07-11 23:25:00,59.0,57.3,29.97,ESE,105,0.0,0.0,94,0.00,,,0.23,WeatherCatV1.15B25,2013-07-12 03:25:00,
2013-07-11 23:30:00,59.0,57.3,29.97,ESE,105,0.0,0.0,94,0.00,,,0.23,WeatherCatV1.15B25,2013-07-12 03:30:00,
2013-07-11 23:35:00,59.0,57.3,29.97,ESE,105,0.0,0.0,94,0.00,,,0.23,WeatherCatV1.15B25,2013-07-12 03:35:00,
2013-07-11 23:40:00,58.9,57.2,29.97,ESE,105,0.0,0.0,94,0.00,,,0.23,WeatherCatV1.15B25,2013-07-12 03:40:00,
2013-07-11 23:46:00,58.7,57.0,29.97,ESE,105,0.0,0.0,94,0.00,,,0.23,WeatherCatV1.15B25,2013-07-12 03:46:00,
2013-07-11 23:51:00,58.6,56.9,29.97,ESE,105,0.0,0.0,94,0.00,,,0.23,WeatherCatV1.15B25,2013-07-12 03:51:00,
2013-07-11 23:56:00,58.4,56.7,29.97,ESE,105,0.0,0.0,94,0.00,,,0.23,WeatherCatV1.15B25,2013-07-12 03:56:00,